Back to catalog

IPEX

AliveScienceLEO
NORAD 39471·PAYLOAD·🇺🇸 United States

Launched Dec 6, 2013 from Vandenberg Space Force Base

Loading…

Next Passes (next 24 hours)

TLE

FreshSource: Space-Track

Epoch: Sep 13, 2026, 23:22 UTC

1 39471U 13072K   26256.97361966  .00009271  00000-0  42426-3 0  9995
2 39471 120.4661 276.0485 0170456  93.8408 268.2166 15.09473236128634

Track IPEX in real time with AllMySat

Download on the App Store